Location: Nakusp
(50.2330°N, 117.8000°W)
Time: 06:33:43
(UTC-07:00)

Daily predictions for brighter satellites

Satellite Brightness Start Highest point End
(mag) Time Altitude Azimuth Time Altitude Azimuth Time Altitude Azimuth
NOSS 0 Rocket 4.4 18:51:49 10° SW 18:58:00 70° NW 19:04:13 10° NNE
Cosmos 2219 Rocket 3.2 18:52:56 10° SW 18:58:25 51° NW 19:03:58 10° NNE
CZ-2C R/B 3.9 18:53:49 10° S 18:58:28 43° W 19:03:01 10° NNW
Cosmos 1346 4.1 19:00:24 10° N 19:02:59 26° ENE 19:05:32 10° SE
Nadezhda 4 Rocket 4.4 18:59:32 10° N 19:05:28 41° ENE 19:11:18 10° SE
H-2A R/B 4.3 19:04:48 10° ESE 19:07:31 18° ENE 19:10:14 10° NNE
CZ-4B DEB 4.4 19:06:17 10° ESE 19:08:37 18° ENE 19:10:57 10° NNE
Cosmos 1805 4.0 19:06:01 10° SSE 19:09:30 31° E 19:13:00 10° NNE
Aureole 2 Rocket 2.9 19:05:13 10° SSW 19:09:34 77° ESE 19:13:46 10° NNE
Cosmos 1076 Rocket 3.5 19:08:58 10° N 19:13:20 81° E 19:17:40 10° SSE
Meteor 1-29 4.4 19:10:59 10° NE 19:13:31 18° E 19:16:03 10° SE
Cosmos 1766 Rocket 3.5 19:09:15 10° N 19:13:38 69° ENE 19:17:58 10° SSE
IDEFIX/ARIANE 42P 4.3 19:09:14 10° SSW 19:14:05 38° W 19:18:59 10° NNW
Cosmos 1072 Rocket 4.4 19:09:50 10° S 19:15:53 68° E 19:21:58 10° NNE
Cosmos 1943 Rocket 3.4 19:12:10 10° NNW 19:16:46 25° NE 19:21:09 11° E
ATLAS 3B R/B 3.8 19:09:27 10° WSW 19:16:47 50° NW 19:23:50 10° NE
Cosmos 1953 2.8 19:13:41 10° SSE 19:17:23 38° E 19:21:06 10° NNE
SAR-Lupe-1 4.2 19:17:13 10° SSE 19:20:46 79° WSW 19:24:21 10° NNW
Cosmos 2369 Rocket 2.6 19:15:48 10° NNW 19:21:13 45° NE 19:26:39 10° SE
NOAA 12 4.2 19:20:15 10° SSE 19:25:32 87° WSW 19:30:53 10° NNW
Cosmos 2151 4.3 19:22:46 10° NNE 19:26:01 21° ENE 19:28:43 12° ESE
Cosmos-2242 3.3 19:22:38 10° SSE 19:26:48 45° E 19:31:01 10° NNE
Cosmos 1943 4.4 19:23:45 10° SE 19:27:38 19° E 19:31:30 10° NE
Meteor 1-22 Rocket 4.3 19:24:43 10° SSW 19:30:02 77° WNW 19:35:22 10° N
Cosmos 1603 4.0 19:28:08 10° S 19:33:32 45° ESE 19:39:00 10° NE
Cosmos 1452 Rocket 4.1 19:28:38 10° NNW 19:33:50 61° WSW 19:38:59 10° S
Cosmos 1470 3.8 19:30:57 10° SE 19:34:07 24° E 19:37:17 10° NE
ATLAS CENTAUR R/B 4.1 19:28:45 10° SSW 19:34:32 62° SE 19:53:21 10° NE
Cosmos 1674 3.0 19:32:47 10° N 19:36:32 44° ENE 19:40:16 10° SSE
NOSS 3-2 (A) 3.5 19:33:13 10° SW 19:39:24 85° SE 19:46:16 10° NE
ASTEX 1 3.9 19:36:55 10° NNE 19:41:29 37° E 19:46:00 10° SSE
Spot 1 4.3 19:39:02 10° SSE 19:43:39 77° WSW 19:48:02 10° NNW
Cosmos 1408 Rocket 4.3 19:41:03 10° NNW 19:45:20 55° W 19:49:33 10° S
Cosmos 1500 Rocket 3.7 19:41:49 10° N 19:46:11 56° ENE 19:50:33 10° SSE
SJ-6B 4.0 19:42:26 10° S 19:46:19 47° W 19:50:18 10° NNW
USA 238 DEB 4.5 19:40:43 10° WSW 19:47:38 55° NW 19:54:33 10° NE
USA 238 4.4 19:40:48 10° WSW 19:47:44 55° NW 19:54:40 10° NE
Cosmos 2333 Rocket 4.0 19:45:40 10° WSW 19:50:48 32° NW 19:55:58 10° NNE
Cosmos 2034 Rocket 4.0 19:44:41 10° S 19:50:59 84° E 19:57:22 10° N
Cosmos 1464 Rocket 4.2 19:45:11 10° SSW 19:51:24 76° W 19:57:36 10° N
Cosmos 1842 Rocket 3.9 19:47:22 10° SSE 19:51:25 40° E 19:55:31 10° NNE
BREEZE-M DEB (TANK) 4.2 19:37:53 10° W 19:53:52 65° S 19:57:17 21° ESE
Cosmos 1420 Rocket 4.3 19:48:37 10° NNW 19:53:54 71° WSW 19:59:11 10° SSE
Cosmos 839 Rocket 4.4 19:46:24 10° NW 19:54:41 79° NE 20:00:25 15° SE
ERBS 2.8 19:51:37 10° NW 19:55:04 50° NNE 19:56:38 27° E
Cosmos 468 4.4 19:51:12 10° SSW 19:56:24 69° ESE 20:01:37 10° NNE
ISS -1.6 19:58:10 10° SSW 20:00:06 19° SSE 20:00:06 19° SSE
USA 186 2.3 20:01:55 27° NNE 20:01:55 27° NNE 20:03:29 10° N
CZ-4C R/B 3.5 19:55:54 10° WSW 20:01:17 42° NNW 20:07:24 10° NE
Cosmos 1758 3.6 19:57:12 10° SSW 20:01:18 73° WNW 20:05:26 10° N
SPOT 5 4.4 20:02:32 15° ENE 20:02:38 15° NE 20:05:02 10° NNE
ATLAS 5 CENTAUR R/B 1.9 19:58:23 10° SW 20:03:17 90° WNW 20:08:42 10° NE
Cosmos 724 4.3 19:59:24 10° SSW 20:05:21 75° SE 20:11:30 10° NE
ALOS 2.2 20:00:46 10° SSE 20:05:26 85° ENE 20:10:09 10° NNW
Helios 1A 3.6 20:01:46 10° S 20:05:55 59° WSW 20:10:07 10° NNW
FengYun 1-2 T 4.4 20:01:19 10° S 20:06:49 75° WSW 20:12:20 10° NNW
CENTAUR R/B 3.0 20:02:11 10° S 20:07:47 38° ESE 20:14:02 10° NE
Cosmos 1544 3.1 20:04:27 10° S 20:08:12 86° W 20:11:59 10° N
Cosmos 2237 Rocket 4.2 20:03:45 10° WSW 20:08:38 29° NW 20:13:31 10° NNE
Meteor 1-11 4.5 20:05:41 10° N 20:11:22 51° ENE 20:14:58 22° SE
Spot 2 Rocket 4.4 20:08:25 10° S 20:13:18 50° W 20:18:14 10° NNW
Cosmos 1743 Rocket 4.3 20:11:03 10° NNW 20:15:26 56° W 20:19:45 10° S
Cosmos 482 Debris 3.6 20:14:17 10° WNW 20:16:36 61° N 20:17:01 52° NE
Exosat Rocket 4.4 20:10:23 10° NNW 20:16:44 74° ENE 20:24:22 15° SE
Resurs 1-3 4.3 20:12:45 10° S 20:17:03 54° W 20:21:23 10° NNW
Cosmos 1627 Rocket 4.5 20:10:59 10° N 20:17:08 63° ENE 20:22:29 14° SSE
Cosmos 1048 Rocket 3.9 20:12:19 10° SSW 20:17:34 70° ESE 20:22:47 10° NNE
NOSS 3-2 (C) 3.8 20:12:58 10° SW 20:19:12 74° NW 20:26:09 10° NE
SL-8 R/B 4.3 20:15:05 10° SW 20:19:28 37° SSE 20:20:21 34° SE
Cosmos 1269 Rocket 3.9 20:15:36 10° SSW 20:20:53 84° ESE 20:26:13 10° NNE
Cosmos 1328 3.7 20:17:48 10° N 20:21:48 71° E 20:23:26 33° SSE
Resurs 01 Rocket 3.1 20:18:58 10° SSW 20:23:07 38° W 20:27:18 10° NNW
Envisat 3.5 20:22:48 34° ESE 20:24:08 40° ENE 20:28:53 10° N
SL-14 R/B 3.5 20:23:29 10° N 20:27:28 51° ENE 20:27:52 49° E
CZ-2D R/B 3.6 20:26:23 16° S 20:29:26 65° WSW 20:33:20 10° NNW
SL-16 R/B 3.7 20:24:52 10° WSW 20:30:08 37° NW 20:35:26 10° NNE
Abrixas 4.5 20:29:20 10° SW 20:30:38 20° SSW 20:30:38 20° SSW
Cosmos 1939 Rocket 3.4 20:32:59 41° ENE 20:32:59 41° ENE 20:36:28 10° N
Sich 1 3.9 20:28:59 10° N 20:32:34 33° ENE 20:32:34 33° ENE
Helios 1B rocket 3.3 20:29:50 10° N 20:33:50 51° WNW 20:37:50 10° SW
Cosmos 158 Rocket 3.7 20:30:32 10° S 20:35:20 60° ESE 20:40:10 10° NNE
FENGYUN 3A 4.3 20:35:03 10° S 20:40:19 54° W 20:45:38 10° NNW
CZ-4B DEB 4.5 20:38:16 14° SSW 20:40:41 33° W 20:43:42 10° NNW
H-2A R/B 4.0 20:41:40 14° NE 20:41:40 14° NE 20:43:52 10° NNE
H-2A R/B 3.6 20:38:39 16° S 20:41:31 49° W 20:45:18 10° NNW
GP-B 3.0 20:38:23 10° N 20:42:52 86° W 20:45:35 23° S
USA 215 3.2 20:40:32 23° ENE 20:44:49 62° SE 20:51:17 10° SW
ERS-1 Rocket 2.8 20:55:37 56° SSE 20:56:42 82° ENE 21:01:45 10° NNW
Terra 4.1 20:58:12 12° NE 20:58:12 12° NE 20:59:16 10° NNE
Cosmos 2279 Rocket 3.9 20:54:12 32° SSE 20:57:08 65° E 21:03:16 10° NNE
SJ-11-01 4.2 20:56:38 56° S 20:57:38 86° WSW 21:02:22 10° NNW
Cosmos 1805 Rocket 3.4 20:53:28 10° N 20:57:58 87° E 20:58:09 82° SSE
H-2A R/B 2.9 21:00:19 39° NE 21:00:19 39° NE 21:03:43 10° N
Cosmos 2058 3.0 20:55:54 10° NNW 21:00:00 70° W 21:00:23 64° SW
Cosmos 1943 Rocket 2.1 20:55:33 10° NNW 21:01:13 81° WSW 21:02:42 51° SSE
Cosmos 2151 4.0 20:59:32 10° NNW 21:03:34 44° W 21:05:22 28° SSW
Cosmos 2369 Rocket 3.4 21:00:01 10° NW 21:05:12 38° WSW 21:08:59 17° SSW
Gbstr 26 Del rocket 4.1 21:01:48 10° SW 21:05:03 39° SSW 21:05:03 39° SSW
Cosmos 1655 Rocket 4.1 21:00:44 10° NNW 21:06:57 74° W 21:10:29 27° S
ATLAS 3B R/B 4.4 21:02:54 10° WNW 21:09:12 29° N 21:15:10 10° NE
Cosmos 2221 3.1 21:10:55 50° N 21:10:55 50° N 21:14:10 10° N
Cosmos 2266 Rocket 4.1 21:03:41 10° N 21:09:55 53° ENE 21:10:11 53° E
Cosmos 1633 Rocket 3.6 21:06:02 10° N 21:09:23 49° NNE 21:09:23 49° NNE
MetOp-B 4.3 21:11:14 54° ENE 21:11:14 54° ENE 21:16:13 10° N
Cosmos 1943 3.2 21:05:22 10° SSW 21:11:01 80° WNW 21:16:41 10° NNE
Cosmos 2026 Rocket 4.3 21:06:06 10° NNW 21:12:07 62° W 21:16:07 22° SSW
Cosmos 1703 4.4 21:09:18 10° N 21:11:44 36° N 21:11:44 36° N
Aureole 3 4.0 21:07:09 10° N 21:13:40 84° E 21:14:18 71° SSE
Cosmos 1428 Rocket 4.4 21:08:28 10° N 21:14:47 86° W 21:16:51 46° S
Cosmos 2251 Rocket 3.7 21:25:11 61° NNE 21:25:11 61° NNE 21:29:32 10° NNE
UNK 4.3 21:16:24 10° WNW 21:34:08 67° SSW 21:34:57 61° S
Cosmos 1666 Rocket 4.5 21:32:39 10° NNW 21:36:17 48° WNW 21:36:17 48° WNW
SPOT 5 3.8 21:41:47 38° NNW 21:41:47 38° NNW 21:44:31 10° NNW
ATLAS 5 CENTAUR R/B 3.8 21:44:13 10° W 21:48:41 29° NNW 21:52:34 14° NNE
CZ-4C R/B 4.3 21:46:28 10° WNW 21:51:29 26° N 21:55:50 14° NE
Cosmos 1697 Rocket 4.3 21:53:11 10° NNW 21:56:48 23° NNE 21:56:48 23° NNE
CENTAUR R/B 3.0 21:51:51 10° WSW 21:58:08 62° NW 22:05:19 10° NE
Envisat 4.3 22:03:01 33° W 22:03:15 33° W 22:07:50 10° NNW
Cosmos 1656 Rocket 4.4 21:59:50 10° NW 22:04:08 48° WNW 22:04:08 48° WNW
ARGOS 4.0 22:10:13 48° NNW 22:10:13 48° NNW 22:14:07 10° NNW
H-2A R/B 3.6 22:22:19 30° N 22:22:19 30° N 22:24:54 10° NNW
SeaSat 1 4.3 22:20:22 10° NNE 22:22:49 26° N 22:22:49 26° N
USA 215 3.5 22:27:56 65° NNW 22:27:56 65° NNW 22:34:21 10° W
Lacrosse 4 Rocket 4.3 22:28:23 10° NNW 22:29:26 14° N 22:29:26 14° N
Terra 4.0 22:37:06 21° N 22:37:06 21° N 22:38:42 10° NNW
Cosmos 1980 Rocket 4.0 22:31:52 10° NNW 22:34:56 24° NNE 22:34:56 24° NNE
ATLAS 3B R/B 4.0 22:55:38 10° NW 23:02:03 32° NNE 23:02:24 32° NNE
SL-16 R/B 4.3 23:04:38 10° NNW 23:07:14 19° NNE 23:07:14 19° NNE
Cosmos 2322 Rocket 4.4 23:27:07 10° NNW 23:29:27 21° N 23:29:27 21° N
ATLAS 5 CENTAUR R/B 4.4 23:31:00 10° NW 23:34:07 20° NNW 23:34:07 20° NNW
CZ-4C R/B 4.1 23:36:07 10° NW 23:40:59 32° N 23:40:59 32° N
CENTAUR R/B 4.3 23:44:18 10° WNW 23:50:15 31° NNW 23:56:50 10° NE
